This is the latest recevied weather packets stored in our database for station/object HI3LT-16. If no packets are shown the sender has not sent any weather packets the latest 10 day(s).
| Time | Temp. | Humidity | Pressure | Rain* | Wind** | Luminosity | Snow |
|---|---|---|---|---|---|---|---|
| 1777421748 | 23.33° C | 88% | 1016 hPa | 0 mm | - | - | - |
| 1777421146 | 23.89° C | 88% | 1016 hPa | 0 mm | - | - | - |
| 1777420545 | 23.89° C | 88% | 1016 hPa | 0 mm | - | - | - |
| 1777419943 | 23.89° C | 88% | 1016 hPa | 0 mm | - | - | - |
| 1777419341 | 23.89° C | 88% | 1016 hPa | 0.25 mm | - | - | - |
| 1777418739 | 23.89° C | 88% | 1015 hPa | 0.25 mm | - | - | - |
| 1777418138 | 23.89° C | 88% | 1015 hPa | 0 mm | - | - | - |
| 1777417538 | 23.89° C | 88% | 1015 hPa | 0 mm | - | - | - |
| 1777416937 | 27.22° C | 74% | 1015 hPa | 1.02 mm | - | - | - |
| 1777416336 | 27.22° C | 74% | 1015 hPa | 0.51 mm | - | - | - |
| 1777415734 | 27.22° C | 74% | 1015 hPa | 0.76 mm | - | - | - |
| 1777415133 | 27.22° C | 74% | 1014 hPa | 2.03 mm | - | - | - |
| 1777414532 | 27.22° C | 74% | 1014 hPa | 1.27 mm | - | - | - |
| 1777413928 | 27.22° C | 74% | 1014 hPa | 0 mm | - | - | - |
| 1777413329 | 28.89° C | 66% | 1014 hPa | 0.25 mm | - | - | - |
| 1777412727 | 28.89° C | 66% | 1014 hPa | 0 mm | - | - | - |
| 1777412126 | 27.78° C | 63% | 1014 hPa | 0.25 mm | - | - | - |
| 1777411525 | 27.78° C | 63% | 1014 hPa | 0 mm | - | - | - |
| 1777410924 | 27.78° C | 63% | 1014 hPa | 0 mm | - | - | - |
| 1777410324 | 27.78° C | 63% | 1014 hPa | 0 mm | - | - | - |
| 1777409723 | 27.78° C | 63% | 1014 hPa | 0 mm | - | - | - |
| 1777409122 | 27.78° C | 63% | 1014 hPa | 0 mm | - | - | - |
| 1777408521 | 27.78° C | 63% | 1014 hPa | 0 mm | - | - | - |
| 1777407920 | 28.33° C | 63% | 1014 hPa | 0.25 mm | - | - | - |
| 1777407319 | 28.33° C | 63% | 1014 hPa | 0 mm | - | - | - |
* Rain latest hour (hover to see other rain measurements)
** Current wind speed in m/s (hover to see current wind gust speed)